Location: Sungai Bunut
(2.6333°N, 113.7333°E)
Time: 08:10:50
(UTC+00:00)

BlueWalker 3 - Visible Passes

Search period start: 30 November 2023 00:00
Search period end: 10 December 2023 00:00
Orbit: 489 x 504 km, 53.2° (Epoch: 29 November)

Date Brightness Start Highest point End Pass type
(mag) Time Alt. Az. Time Alt. Az. Time Alt. Az.
04 Dec 4.2 12:11:05 10° SSW 12:12:20 19° SSW 12:12:20 19° SSW visible
05 Dec 2.9 11:48:25 10° SSW 11:51:10 37° SSE 11:51:10 37° SSE visible
06 Dec 2.3 11:25:45 10° SSW 11:29:26 46° SE 11:30:02 42° E visible
07 Dec 2.4 11:03:03 10° SSW 11:06:44 45° ESE 11:08:55 21° ENE visible
08 Dec 2.4 10:40:20 10° SSW 10:44:01 43° ESE 10:47:41 10° NE visible
